SIA9024 WSSS-KJFK

Flight info

Callsign SIA9024
Flight time N/A
Altitude 32000
Route TOMAN5B TOMAN L625 AKMON/K0956F320 L625 ANOKI/N0514F320 L625 AVMUP/N0502F350 L625 MEVIN B462 KAZIK Y59 AZAMA Y57 DOMBI/N0489F370 Y57 POROT Y577 MAKMU R580 OPULO DCT OMOTO R580 OPAKE/N0496F390 R580 ORCCA DCT SQA DCT 63N146W DCT HWKGV DCT 62N30/N0484F410 DCT 59N20 DCT ALGAR DCT YPA DCT 50N100W DCT 4690N DCT TWIGS DCT JHW Q476 WLKES PUCKY1
Aircraft A359/H-SDE1E2E3GHIJ1J2J3J5M1P2RWXYZ/C

Departure

Time N/A
Airport Singapore Changi Airport (WSSS)

Arrival

Time 2026-05-09 06:08
Airport John F. Kennedy International Airport (KJFK)
Time Latitude Longitude Altitude Speed Heading
2026-05-09 00:34 63.26248 -142.25583 38709 ft 511 kts 85°
2026-05-09 00:35 63.26687 -142.17746 38710 ft 511 kts 85°
2026-05-09 00:35 63.27551 -142.02088 38709 ft 511 kts 85°
2026-05-09 00:36 63.28400 -141.86408 38706 ft 511 kts 85°
2026-05-09 00:36 63.29230 -141.70730 38708 ft 511 kts 85°
2026-05-09 00:37 63.30043 -141.55050 38709 ft 510 kts 86°
2026-05-09 00:37 63.30838 -141.39354 38706 ft 510 kts 86°
2026-05-09 00:38 63.31616 -141.23676 38716 ft 510 kts 86°
2026-05-09 00:38 63.32371 -141.08010 38714 ft 509 kts 86°
2026-05-09 00:39 63.32118 -140.92407 38716 ft 503 kts 101°
2026-05-09 00:39 63.31020 -140.77051 38715 ft 503 kts 103°
2026-05-09 00:40 63.29773 -140.61759 38722 ft 502 kts 103°
2026-05-09 00:40 63.28508 -140.46487 38705 ft 502 kts 103°
2026-05-09 00:41 63.26615 -140.23616 38719 ft 502 kts 103°
2026-05-09 00:41 63.25341 -140.08381 38715 ft 502 kts 103°
2026-05-09 00:42 63.24049 -139.93158 38715 ft 502 kts 103°
2026-05-09 00:42 63.22740 -139.77929 38713 ft 503 kts 104°
2026-05-09 00:43 63.21411 -139.62681 38928 ft 503 kts 104°
2026-05-09 00:43 63.20741 -139.55076 39104 ft 503 kts 104°
2026-05-09 00:43 63.20068 -139.47478 39251 ft 502 kts 104°
2026-05-09 00:44 63.19392 -139.39892 39394 ft 502 kts 104°
2026-05-09 00:44 63.18710 -139.32295 39501 ft 502 kts 104°
2026-05-09 00:44 63.18026 -139.24726 39644 ft 502 kts 104°
2026-05-09 00:44 63.17345 -139.17241 39774 ft 502 kts 104°
2026-05-09 00:45 63.16654 -139.09686 39890 ft 502 kts 104°
2026-05-09 00:45 63.15957 -139.02104 40013 ft 502 kts 104°
2026-05-09 00:45 63.15246 -138.94435 40127 ft 502 kts 104°
2026-05-09 00:45 63.14541 -138.86867 40236 ft 502 kts 104°
2026-05-09 00:46 63.13832 -138.79311 40352 ft 502 kts 104°
2026-05-09 00:46 63.13130 -138.71865 40451 ft 502 kts 104°
2026-05-09 00:46 63.11691 -138.56758 40645 ft 502 kts 104°
2026-05-09 00:47 63.10235 -138.41654 40723 ft 503 kts 105°
2026-05-09 00:47 63.08761 -138.26541 40725 ft 504 kts 105°
2026-05-09 00:48 63.07271 -138.11449 40727 ft 504 kts 105°
2026-05-09 00:48 63.05764 -137.96360 40725 ft 503 kts 105°
2026-05-09 00:49 63.04243 -137.81303 40724 ft 503 kts 105°
2026-05-09 00:49 63.02706 -137.66255 40725 ft 503 kts 105°
2026-05-09 00:50 63.01152 -137.51224 40727 ft 503 kts 105°
2026-05-09 00:50 62.99582 -137.36217 40729 ft 503 kts 105°
2026-05-09 00:51 62.97996 -137.21222 40730 ft 503 kts 106°
2026-05-09 00:51 62.96396 -137.06250 40736 ft 503 kts 106°
2026-05-09 00:52 62.94782 -136.91313 40743 ft 503 kts 106°
2026-05-09 00:52 62.93150 -136.76381 40749 ft 503 kts 106°
2026-05-09 00:53 62.91513 -136.61560 40748 ft 503 kts 106°
2026-05-09 00:53 62.89849 -136.46648 40752 ft 503 kts 107°
2026-05-09 00:54 62.88171 -136.31760 40748 ft 503 kts 107°
2026-05-09 00:54 62.86480 -136.16917 40764 ft 502 kts 107°
2026-05-09 00:55 62.84774 -136.02105 40762 ft 502 kts 107°
2026-05-09 00:55 62.83053 -135.87318 40766 ft 502 kts 107°
2026-05-09 00:56 62.81317 -135.72542 40763 ft 501 kts 107°
2026-05-09 00:56 62.79566 -135.57790 40768 ft 501 kts 107°
2026-05-09 00:57 62.77801 -135.43074 40759 ft 500 kts 107°
2026-05-09 00:57 62.76022 -135.28383 40763 ft 501 kts 108°
2026-05-09 00:58 62.74229 -135.13720 40772 ft 501 kts 108°
2026-05-09 00:58 62.72414 -134.99025 40774 ft 501 kts 108°
2026-05-09 00:59 62.70589 -134.84382 40783 ft 501 kts 108°
2026-05-09 00:59 62.68747 -134.69739 40772 ft 501 kts 108°
2026-05-09 01:00 62.66892 -134.55143 40796 ft 500 kts 108°
2026-05-09 01:00 62.65024 -134.40580 40798 ft 500 kts 108°
2026-05-09 01:01 62.63140 -134.26030 40786 ft 500 kts 108°
2026-05-09 01:01 62.61243 -134.11504 40799 ft 499 kts 108°
2026-05-09 01:02 62.59332 -133.97002 40778 ft 500 kts 109°
2026-05-09 01:02 62.57402 -133.82512 40794 ft 501 kts 109°
2026-05-09 01:03 62.55455 -133.68014 40794 ft 501 kts 109°
2026-05-09 01:03 62.53495 -133.53546 40796 ft 500 kts 109°
2026-05-09 01:04 62.51520 -133.39094 40796 ft 500 kts 109°
2026-05-09 01:04 62.49527 -133.24646 40812 ft 503 kts 109°
2026-05-09 01:05 62.47504 -133.10112 40801 ft 507 kts 109°
2026-05-09 01:06 62.44413 -132.88145 40817 ft 511 kts 109°
2026-05-09 01:06 62.42322 -132.73441 40818 ft 513 kts 109°
2026-05-09 01:07 62.40210 -132.58717 40822 ft 514 kts 110°
2026-05-09 01:07 62.38078 -132.43987 40821 ft 515 kts 110°
2026-05-09 01:08 62.35929 -132.29271 40832 ft 515 kts 110°
2026-05-09 01:08 62.33778 -132.14661 40830 ft 516 kts 110°
2026-05-09 01:09 62.31595 -131.99965 40826 ft 516 kts 110°
2026-05-09 01:09 62.29393 -131.85266 40826 ft 516 kts 110°
2026-05-09 01:10 62.27177 -131.70598 40821 ft 516 kts 110°
2026-05-09 01:10 62.24945 -131.55947 40803 ft 516 kts 110°
2026-05-09 01:11 62.22700 -131.41335 40820 ft 516 kts 110°
2026-05-09 01:11 62.20437 -131.26735 40822 ft 516 kts 110°
2026-05-09 01:12 62.18158 -131.12147 40828 ft 516 kts 111°
2026-05-09 01:12 62.15864 -130.97576 40846 ft 517 kts 110°
2026-05-09 01:13 62.13553 -130.83026 40847 ft 517 kts 111°
2026-05-09 01:13 62.11225 -130.68481 40859 ft 518 kts 111°
2026-05-09 01:14 62.08879 -130.53947 40859 ft 518 kts 111°
2026-05-09 01:14 62.06516 -130.39419 40871 ft 518 kts 111°
2026-05-09 01:15 62.04137 -130.24915 40870 ft 518 kts 111°
2026-05-09 01:15 62.01743 -130.10425 40884 ft 518 kts 111°
2026-05-09 01:16 61.99081 -129.96315 40885 ft 516 kts 118°
2026-05-09 01:16 61.95873 -129.82563 40908 ft 515 kts 119°
2026-05-09 01:17 61.90969 -129.62370 40916 ft 515 kts 120°
2026-05-09 01:17 61.87672 -129.48879 40908 ft 515 kts 120°
2026-05-09 01:18 61.84371 -129.35410 40918 ft 516 kts 120°
2026-05-09 01:18 61.81048 -129.21922 40922 ft 517 kts 120°
2026-05-09 01:19 61.77707 -129.08445 40948 ft 517 kts 120°
2026-05-09 01:19 61.74353 -128.94990 40950 ft 518 kts 120°
2026-05-09 01:20 61.70983 -128.81560 40955 ft 518 kts 120°
2026-05-09 01:20 61.68173 -128.70425 40948 ft 518 kts 121°
2026-05-09 01:21 61.64779 -128.57048 40956 ft 518 kts 121°
2026-05-09 01:21 61.61369 -128.43692 40961 ft 519 kts 121°
2026-05-09 01:22 61.57944 -128.30353 40956 ft 519 kts 121°
2026-05-09 01:22 61.54508 -128.17053 40953 ft 519 kts 121°
2026-05-09 01:23 61.51059 -128.03782 40949 ft 518 kts 121°
2026-05-09 01:23 61.47598 -127.90545 40949 ft 518 kts 121°
2026-05-09 01:24 61.44127 -127.77349 40944 ft 518 kts 121°
2026-05-09 01:24 61.40639 -127.64166 40939 ft 519 kts 121°
2026-05-09 01:25 61.37127 -127.50974 40933 ft 521 kts 121°
2026-05-09 01:25 61.33600 -127.37795 40933 ft 520 kts 122°
2026-05-09 01:26 61.30062 -127.24654 40922 ft 521 kts 122°
2026-05-09 01:26 61.26508 -127.11529 40922 ft 521 kts 122°
2026-05-09 01:27 61.22942 -126.98438 40916 ft 521 kts 122°
2026-05-09 01:27 61.19365 -126.85382 40902 ft 520 kts 122°
2026-05-09 01:28 61.15775 -126.72358 40913 ft 520 kts 122°
2026-05-09 01:28 61.12177 -126.59374 40913 ft 520 kts 122°
2026-05-09 01:29 61.08588 -126.46501 40914 ft 520 kts 123°
2026-05-09 01:29 61.04965 -126.33579 40922 ft 520 kts 123°
2026-05-09 01:30 61.01305 -126.20595 40915 ft 520 kts 123°
2026-05-09 01:30 60.97659 -126.07739 40927 ft 520 kts 123°
2026-05-09 01:31 60.94027 -125.95002 40927 ft 520 kts 123°
2026-05-09 01:31 60.90356 -125.82202 40928 ft 520 kts 123°
2026-05-09 01:32 60.86676 -125.69441 40937 ft 519 kts 123°
2026-05-09 01:32 60.82981 -125.56699 40936 ft 519 kts 123°
2026-05-09 01:33 60.79279 -125.44002 40938 ft 519 kts 123°
2026-05-09 01:33 60.75564 -125.31331 40947 ft 519 kts 123°
2026-05-09 01:34 60.71834 -125.18683 40946 ft 519 kts 124°
2026-05-09 01:34 60.68098 -125.06083 40961 ft 519 kts 124°
2026-05-09 01:35 60.64347 -124.93502 40959 ft 519 kts 124°
2026-05-09 01:35 60.61223 -124.83073 40965 ft 519 kts 124°
2026-05-09 01:37 60.45558 -124.31489 40955 ft 520 kts 124°
2026-05-09 01:38 60.41752 -124.19128 40958 ft 521 kts 124°
2026-05-09 01:38 60.37902 -124.06688 40959 ft 521 kts 124°
2026-05-09 01:39 60.34041 -123.94283 40956 ft 522 kts 124°
2026-05-09 01:39 60.30171 -123.81913 40955 ft 521 kts 124°
2026-05-09 01:40 60.26292 -123.69583 40968 ft 521 kts 124°
2026-05-09 01:40 60.22396 -123.57262 40968 ft 521 kts 125°
2026-05-09 01:41 60.18489 -123.44973 40971 ft 521 kts 125°
2026-05-09 01:41 60.14572 -123.32716 40972 ft 521 kts 125°
2026-05-09 01:42 60.10646 -123.20500 40978 ft 521 kts 125°
2026-05-09 01:43 60.02544 -122.95482 40998 ft 521 kts 125°
2026-05-09 01:43 59.98582 -122.83345 40999 ft 522 kts 125°
2026-05-09 01:44 59.95008 -122.72452 40982 ft 523 kts 125°
2026-05-09 01:44 59.91008 -122.60322 41013 ft 524 kts 125°
2026-05-09 01:45 59.86990 -122.48196 41012 ft 525 kts 125°
2026-05-09 01:45 59.82959 -122.36095 41018 ft 525 kts 126°
2026-05-09 01:46 59.78918 -122.24028 41013 ft 524 kts 126°
2026-05-09 01:46 59.74867 -122.11993 41022 ft 524 kts 126°
2026-05-09 01:47 59.70804 -121.99984 41021 ft 525 kts 126°
2026-05-09 01:47 59.66760 -121.88090 41022 ft 525 kts 126°
2026-05-09 01:48 59.62644 -121.76047 41018 ft 525 kts 126°
2026-05-09 01:48 59.58576 -121.64206 41022 ft 525 kts 126°
2026-05-09 01:49 59.54470 -121.52316 41021 ft 524 kts 126°
2026-05-09 01:49 59.50352 -121.40447 41019 ft 525 kts 126°
2026-05-09 01:50 59.46223 -121.28611 41019 ft 526 kts 126°
2026-05-09 01:50 59.42068 -121.16760 41022 ft 527 kts 126°
2026-05-09 01:51 59.37901 -121.04930 41017 ft 527 kts 126°
2026-05-09 01:51 59.33720 -120.93121 41022 ft 527 kts 126°
2026-05-09 01:52 59.29523 -120.81327 41023 ft 527 kts 126°
2026-05-09 01:52 59.25321 -120.69577 41020 ft 527 kts 126°
2026-05-09 01:53 59.21104 -120.57846 41021 ft 527 kts 127°
2026-05-09 01:53 59.16881 -120.46157 41020 ft 527 kts 127°
2026-05-09 01:54 59.12643 -120.34482 41023 ft 527 kts 127°
2026-05-09 01:54 59.08398 -120.22846 41021 ft 527 kts 127°
2026-05-09 01:55 59.04142 -120.11237 41021 ft 527 kts 127°
2026-05-09 01:55 58.99875 -119.99654 41018 ft 527 kts 127°
2026-05-09 01:56 58.95849 -119.87752 41028 ft 529 kts 122°
2026-05-09 01:56 58.92055 -119.75523 41030 ft 530 kts 122°
2026-05-09 01:57 58.88216 -119.63319 41040 ft 531 kts 122°
2026-05-09 01:57 58.84317 -119.51210 41043 ft 531 kts 123°
2026-05-09 01:58 58.80384 -119.39147 41041 ft 531 kts 123°
2026-05-09 01:58 58.76435 -119.27109 41042 ft 531 kts 123°
2026-05-09 01:59 58.72476 -119.15090 41053 ft 531 kts 123°
2026-05-09 01:59 58.68506 -119.03093 41057 ft 531 kts 123°
2026-05-09 02:00 58.64527 -118.91130 41060 ft 531 kts 123°
2026-05-09 02:00 58.60537 -118.79192 41058 ft 532 kts 123°
2026-05-09 02:01 58.56531 -118.67270 41083 ft 532 kts 123°
2026-05-09 02:01 58.52508 -118.55358 41065 ft 534 kts 123°
2026-05-09 02:02 58.48465 -118.43445 41067 ft 534 kts 123°
2026-05-09 02:02 58.44434 -118.31626 41067 ft 534 kts 123°
2026-05-09 02:03 58.40364 -118.19754 41078 ft 534 kts 123°
2026-05-09 02:03 58.36286 -118.07914 41078 ft 534 kts 123°
2026-05-09 02:04 58.32196 -117.96103 41078 ft 534 kts 124°
2026-05-09 02:04 58.28094 -117.84316 41078 ft 534 kts 124°
2026-05-09 02:05 58.23984 -117.72561 41085 ft 535 kts 124°
2026-05-09 02:05 58.19860 -117.60825 41094 ft 535 kts 124°
2026-05-09 02:06 58.15723 -117.49112 41097 ft 535 kts 124°
2026-05-09 02:07 58.09484 -117.31555 41100 ft 537 kts 124°
2026-05-09 02:07 58.05305 -117.19865 41100 ft 537 kts 124°
2026-05-09 02:08 58.01111 -117.08191 41100 ft 537 kts 124°
2026-05-09 02:08 57.96906 -116.96544 41094 ft 537 kts 124°
2026-05-09 02:09 57.92691 -116.84927 41092 ft 537 kts 124°
2026-05-09 02:09 57.88465 -116.73335 41082 ft 537 kts 124°
2026-05-09 02:10 57.84226 -116.61764 41082 ft 538 kts 124°
2026-05-09 02:10 57.79972 -116.50207 41077 ft 538 kts 124°
2026-05-09 02:11 57.75710 -116.38684 41078 ft 538 kts 124°
2026-05-09 02:11 57.71463 -116.27259 41074 ft 539 kts 124°
2026-05-09 02:12 57.67171 -116.15767 41071 ft 539 kts 124°
2026-05-09 02:12 57.62864 -116.04287 41073 ft 540 kts 124°
2026-05-09 02:13 57.58544 -115.92830 41072 ft 540 kts 124°
2026-05-09 02:13 57.54214 -115.81401 41069 ft 540 kts 125°
2026-05-09 02:14 57.49874 -115.69999 41068 ft 540 kts 125°
2026-05-09 02:14 57.45523 -115.58622 41069 ft 540 kts 125°
2026-05-09 02:15 57.41158 -115.47264 41069 ft 540 kts 125°
2026-05-09 02:15 57.36783 -115.35931 41068 ft 540 kts 125°
2026-05-09 02:16 57.32397 -115.24624 41060 ft 540 kts 125°
2026-05-09 02:16 57.27997 -115.13335 41077 ft 541 kts 125°
2026-05-09 02:17 57.23580 -115.02055 41071 ft 542 kts 125°
2026-05-09 02:17 57.19152 -114.90797 41073 ft 542 kts 125°
2026-05-09 02:18 57.14712 -114.79565 41077 ft 542 kts 125°
2026-05-09 02:18 57.10263 -114.68361 41069 ft 542 kts 125°
2026-05-09 02:19 57.05801 -114.57179 41075 ft 543 kts 126°
2026-05-09 02:19 57.01328 -114.46017 41074 ft 543 kts 126°
2026-05-09 02:20 56.96846 -114.34884 41073 ft 543 kts 126°
2026-05-09 02:20 56.92354 -114.23780 41068 ft 543 kts 126°
2026-05-09 02:21 56.87850 -114.12695 41067 ft 543 kts 126°
2026-05-09 02:21 56.83330 -114.01624 41062 ft 544 kts 126°
2026-05-09 02:22 56.78792 -113.90558 41066 ft 545 kts 126°
2026-05-09 02:22 56.74240 -113.79509 41065 ft 545 kts 126°
2026-05-09 02:23 56.69674 -113.68477 41066 ft 546 kts 126°
2026-05-09 02:23 56.65091 -113.57454 41065 ft 547 kts 126°
2026-05-09 02:24 56.60525 -113.46522 41061 ft 547 kts 126°
2026-05-09 02:24 56.55919 -113.35545 41061 ft 547 kts 126°
2026-05-09 02:25 56.51304 -113.24594 41058 ft 547 kts 127°
2026-05-09 02:25 56.46677 -113.13665 41061 ft 547 kts 127°
2026-05-09 02:26 56.42042 -113.02767 41063 ft 547 kts 127°
2026-05-09 02:26 56.37397 -112.91892 41066 ft 547 kts 127°
2026-05-09 02:27 56.32742 -112.81045 41067 ft 547 kts 127°
2026-05-09 02:27 56.28078 -112.70224 41062 ft 547 kts 127°
2026-05-09 02:28 56.23405 -112.59431 41063 ft 547 kts 127°
2026-05-09 02:28 56.18720 -112.48658 41056 ft 547 kts 127°
2026-05-09 02:29 56.14030 -112.37922 41067 ft 547 kts 127°
2026-05-09 02:29 56.09327 -112.27203 41066 ft 547 kts 127°
2026-05-09 02:30 56.04649 -112.16587 41074 ft 547 kts 127°
2026-05-09 02:30 55.99953 -112.05893 41109 ft 547 kts 126°
2026-05-09 02:31 55.95632 -111.94713 41074 ft 547 kts 122°
2026-05-09 02:31 55.92116 -111.85215 41068 ft 548 kts 122°
2026-05-09 02:32 55.87164 -111.72116 41080 ft 549 kts 123°
2026-05-09 02:32 55.82837 -111.60921 41065 ft 549 kts 123°
2026-05-09 02:33 55.79224 -111.51656 41081 ft 549 kts 123°
2026-05-09 02:33 55.74864 -111.40522 41076 ft 549 kts 123°
2026-05-09 02:34 55.70492 -111.29398 41073 ft 550 kts 124°
2026-05-09 02:34 55.66108 -111.18291 41068 ft 550 kts 124°
2026-05-09 02:35 55.61709 -111.07193 41071 ft 551 kts 124°
2026-05-09 02:35 55.57294 -110.96107 41061 ft 552 kts 124°
2026-05-09 02:36 55.52862 -110.85029 41061 ft 553 kts 124°
2026-05-09 02:36 55.48415 -110.73963 41062 ft 553 kts 124°
2026-05-09 02:37 55.43955 -110.62915 41066 ft 553 kts 124°
2026-05-09 02:37 55.39486 -110.51893 41060 ft 553 kts 124°
2026-05-09 02:38 55.35007 -110.40896 41058 ft 553 kts 124°
2026-05-09 02:38 55.30515 -110.29916 41058 ft 553 kts 124°
2026-05-09 02:39 55.26013 -110.18962 41050 ft 553 kts 124°
2026-05-09 02:39 55.21502 -110.08034 41053 ft 553 kts 124°
2026-05-09 02:40 55.16978 -109.97122 41052 ft 554 kts 124°
2026-05-09 02:40 55.12446 -109.86239 41050 ft 554 kts 124°
2026-05-09 02:41 55.07900 -109.75372 41049 ft 554 kts 125°
2026-05-09 02:41 55.03382 -109.64616 41051 ft 554 kts 125°
2026-05-09 02:42 54.98809 -109.53779 41065 ft 554 kts 125°
2026-05-09 02:42 54.94233 -109.42981 41061 ft 555 kts 125°
2026-05-09 02:43 54.89643 -109.32200 41065 ft 554 kts 125°
2026-05-09 02:43 54.85053 -109.21462 41064 ft 554 kts 125°
2026-05-09 02:44 54.80452 -109.10748 41066 ft 554 kts 125°
2026-05-09 02:44 54.75843 -109.00060 41064 ft 554 kts 125°
2026-05-09 02:45 54.71215 -108.89373 41066 ft 555 kts 125°
2026-05-09 02:45 54.66578 -108.78713 41067 ft 555 kts 125°
2026-05-09 02:46 54.61925 -108.68063 41067 ft 555 kts 126°
2026-05-09 02:46 54.57266 -108.57444 41109 ft 555 kts 126°
2026-05-09 02:47 54.52602 -108.46859 41072 ft 554 kts 126°
2026-05-09 02:47 54.47929 -108.36296 41065 ft 554 kts 126°
2026-05-09 02:48 54.43250 -108.25767 41065 ft 554 kts 126°
2026-05-09 02:48 54.38562 -108.15262 41062 ft 554 kts 126°
2026-05-09 02:49 54.33859 -108.04768 41067 ft 555 kts 126°
2026-05-09 02:49 54.29145 -107.94294 41061 ft 555 kts 126°
2026-05-09 02:50 54.24421 -107.83841 41040 ft 555 kts 126°
2026-05-09 02:50 54.19689 -107.73415 41054 ft 556 kts 126°
2026-05-09 02:51 54.14943 -107.63001 41042 ft 556 kts 126°
2026-05-09 02:51 54.10187 -107.52607 41040 ft 556 kts 127°
2026-05-09 02:52 54.05423 -107.42242 41038 ft 556 kts 127°
2026-05-09 02:52 54.00646 -107.31891 41031 ft 556 kts 127°
2026-05-09 02:53 53.95858 -107.21559 41029 ft 557 kts 127°
2026-05-09 02:53 53.91056 -107.11239 41026 ft 557 kts 127°
2026-05-09 02:54 53.86271 -107.00998 41023 ft 557 kts 127°
2026-05-09 02:54 53.81449 -106.90721 41017 ft 557 kts 127°
2026-05-09 02:55 53.76620 -106.80471 41021 ft 557 kts 127°
2026-05-09 02:55 53.71775 -106.70229 41020 ft 558 kts 127°
2026-05-09 02:56 53.66921 -106.60011 41020 ft 558 kts 127°
2026-05-09 02:56 53.62059 -106.49816 41019 ft 558 kts 127°
2026-05-09 02:57 53.57184 -106.39637 41016 ft 559 kts 127°
2026-05-09 02:57 53.52301 -106.29483 41009 ft 559 kts 128°
2026-05-09 02:58 53.47402 -106.19337 41018 ft 559 kts 128°
2026-05-09 02:58 53.42501 -106.09228 41007 ft 558 kts 128°
2026-05-09 02:59 53.37598 -105.99155 41000 ft 558 kts 128°
2026-05-09 02:59 53.32682 -105.89095 40956 ft 558 kts 128°
2026-05-09 03:00 53.27757 -105.79058 40934 ft 558 kts 128°
2026-05-09 03:00 53.22827 -105.69051 40936 ft 558 kts 128°
2026-05-09 03:01 53.17853 -105.59082 40939 ft 559 kts 129°
2026-05-09 03:01 53.12819 -105.49209 40944 ft 559 kts 129°
2026-05-09 03:02 53.07771 -105.39358 40973 ft 559 kts 129°
2026-05-09 03:02 53.02735 -105.29540 40972 ft 558 kts 129°
2026-05-09 03:03 52.97695 -105.19739 40984 ft 558 kts 129°
2026-05-09 03:03 52.92642 -105.09948 40982 ft 559 kts 129°
2026-05-09 03:04 52.87583 -105.00188 40980 ft 559 kts 129°
2026-05-09 03:04 52.82511 -104.90438 40981 ft 559 kts 129°
2026-05-09 03:05 52.77435 -104.80722 40968 ft 559 kts 129°
2026-05-09 03:05 52.72346 -104.71016 40972 ft 559 kts 129°
2026-05-09 03:06 52.67242 -104.61321 40973 ft 560 kts 130°
2026-05-09 03:06 52.62131 -104.51650 40966 ft 560 kts 130°
2026-05-09 03:07 52.57017 -104.42011 40976 ft 560 kts 130°
2026-05-09 03:07 52.51892 -104.32387 40971 ft 560 kts 130°
2026-05-09 03:08 52.46757 -104.22783 40962 ft 559 kts 130°
2026-05-09 03:08 52.41652 -104.13270 40956 ft 560 kts 130°
2026-05-09 03:09 52.36498 -104.03704 40963 ft 560 kts 130°
2026-05-09 03:09 52.31332 -103.94152 40963 ft 561 kts 130°
2026-05-09 03:10 52.26165 -103.84634 40954 ft 560 kts 130°
2026-05-09 03:10 52.20988 -103.75134 40955 ft 560 kts 130°
2026-05-09 03:11 52.15802 -103.65653 40948 ft 561 kts 130°
2026-05-09 03:11 52.10605 -103.56189 40948 ft 561 kts 130°
2026-05-09 03:12 52.05397 -103.46740 40947 ft 561 kts 131°
2026-05-09 03:12 52.00182 -103.37315 40932 ft 561 kts 131°
2026-05-09 03:13 51.92343 -103.23213 40945 ft 561 kts 131°
2026-05-09 03:13 51.87114 -103.13852 40933 ft 560 kts 131°
2026-05-09 03:14 51.81886 -103.04525 40932 ft 560 kts 131°
2026-05-09 03:14 51.76644 -102.95210 40933 ft 560 kts 131°
2026-05-09 03:15 51.71391 -102.85909 40925 ft 561 kts 131°
2026-05-09 03:15 51.66167 -102.76693 40925 ft 561 kts 131°
2026-05-09 03:16 51.60894 -102.67426 40922 ft 561 kts 131°
2026-05-09 03:16 51.55614 -102.58181 40926 ft 562 kts 131°
2026-05-09 03:17 51.50330 -102.48963 40917 ft 560 kts 131°
2026-05-09 03:17 51.45043 -102.39774 40917 ft 560 kts 131°
2026-05-09 03:18 51.40646 -102.32158 40905 ft 560 kts 131°
2026-05-09 03:18 51.34453 -102.21468 40904 ft 561 kts 132°
2026-05-09 03:19 51.30034 -102.13868 40900 ft 561 kts 132°
2026-05-09 03:19 51.24716 -102.04755 40894 ft 561 kts 132°
2026-05-09 03:20 51.19388 -101.95657 40904 ft 561 kts 132°
2026-05-09 03:20 51.14055 -101.86582 40890 ft 560 kts 132°
2026-05-09 03:21 51.08725 -101.77547 40881 ft 560 kts 132°
2026-05-09 03:21 51.03388 -101.68530 40876 ft 560 kts 132°
2026-05-09 03:22 50.98048 -101.59542 40875 ft 560 kts 132°
2026-05-09 03:22 50.92694 -101.50563 40868 ft 560 kts 132°
2026-05-09 03:23 50.87336 -101.41609 40865 ft 560 kts 133°
2026-05-09 03:23 50.81972 -101.32676 40862 ft 560 kts 133°
2026-05-09 03:24 50.76596 -101.23757 40854 ft 560 kts 133°
2026-05-09 03:24 50.71213 -101.14858 40858 ft 561 kts 133°
2026-05-09 03:25 50.65818 -101.05969 40867 ft 561 kts 133°
2026-05-09 03:25 50.60412 -100.97095 40859 ft 561 kts 133°
2026-05-09 03:26 50.55000 -100.88242 40858 ft 561 kts 133°
2026-05-09 03:26 50.49585 -100.79415 40855 ft 561 kts 133°
2026-05-09 03:27 50.44159 -100.70602 40852 ft 561 kts 133°
2026-05-09 03:27 50.38735 -100.61822 40838 ft 559 kts 133°
2026-05-09 03:28 50.33319 -100.53086 40852 ft 558 kts 133°
2026-05-09 03:28 50.27903 -100.44382 40846 ft 558 kts 133°
2026-05-09 03:29 50.22517 -100.35754 40843 ft 558 kts 134°
2026-05-09 03:29 50.17084 -100.27081 40839 ft 558 kts 134°
2026-05-09 03:30 50.11643 -100.18425 40845 ft 559 kts 134°
2026-05-09 03:30 50.06194 -100.09788 40844 ft 559 kts 134°
2026-05-09 03:31 50.00883 -100.00963 40849 ft 558 kts 126°
2026-05-09 03:31 49.96879 -99.90695 40847 ft 555 kts 116°
2026-05-09 03:32 49.93327 -99.80046 40845 ft 556 kts 114°
2026-05-09 03:32 49.89832 -99.69347 40818 ft 556 kts 115°
2026-05-09 03:33 49.86309 -99.58682 40820 ft 556 kts 115°
2026-05-09 03:33 49.82751 -99.48036 40833 ft 555 kts 115°
2026-05-09 03:34 49.79189 -99.37450 40834 ft 555 kts 115°
2026-05-09 03:34 49.75616 -99.26871 40834 ft 555 kts 115°
2026-05-09 03:35 49.72037 -99.16316 40834 ft 555 kts 115°
2026-05-09 03:35 49.68441 -99.05750 40832 ft 555 kts 115°
2026-05-09 03:36 49.64867 -98.95294 40832 ft 554 kts 116°
2026-05-09 03:36 49.61240 -98.84727 40824 ft 554 kts 116°
2026-05-09 03:37 49.57648 -98.74305 40829 ft 554 kts 116°
2026-05-09 03:37 49.54021 -98.63824 40829 ft 554 kts 116°
2026-05-09 03:38 49.50385 -98.53358 40823 ft 554 kts 116°
2026-05-09 03:38 49.46741 -98.42914 40820 ft 554 kts 116°
2026-05-09 03:39 49.43085 -98.32477 40810 ft 555 kts 116°
2026-05-09 03:39 49.39415 -98.22045 40804 ft 556 kts 116°
2026-05-09 03:40 49.35732 -98.11614 40804 ft 556 kts 116°
2026-05-09 03:40 49.32036 -98.01193 40809 ft 556 kts 116°
2026-05-09 03:41 49.28335 -97.90796 40785 ft 556 kts 117°
2026-05-09 03:41 49.24627 -97.80425 40764 ft 555 kts 117°
2026-05-09 03:42 49.20906 -97.70058 40771 ft 556 kts 117°
2026-05-09 03:42 49.17178 -97.59711 40755 ft 556 kts 117°
2026-05-09 03:43 49.13438 -97.49373 40763 ft 556 kts 117°
2026-05-09 03:43 49.09693 -97.39060 40740 ft 555 kts 117°
2026-05-09 03:44 49.05939 -97.28768 40736 ft 555 kts 117°
2026-05-09 03:44 49.02178 -97.18493 40734 ft 555 kts 117°
2026-05-09 03:45 48.98404 -97.08223 40741 ft 555 kts 117°
2026-05-09 03:45 48.94623 -96.97976 40752 ft 555 kts 117°
2026-05-09 03:46 48.90836 -96.87753 40749 ft 554 kts 117°
2026-05-09 03:46 48.87043 -96.77555 40731 ft 554 kts 118°
2026-05-09 03:47 48.83241 -96.67368 40746 ft 554 kts 118°
2026-05-09 03:47 48.79430 -96.57199 40742 ft 554 kts 118°
2026-05-09 03:48 48.75608 -96.47041 40737 ft 554 kts 118°
2026-05-09 03:48 48.71784 -96.36916 40731 ft 554 kts 118°
2026-05-09 03:49 48.67981 -96.26883 40737 ft 554 kts 118°
2026-05-09 03:49 48.64136 -96.16779 40734 ft 554 kts 118°
2026-05-09 03:50 48.60260 -96.06634 40758 ft 554 kts 118°
2026-05-09 03:50 48.56404 -95.96577 40732 ft 553 kts 118°
2026-05-09 03:51 48.52542 -95.86545 40733 ft 553 kts 118°
2026-05-09 03:51 48.48697 -95.76593 40737 ft 553 kts 119°
2026-05-09 03:52 48.44818 -95.66592 40728 ft 552 kts 119°
2026-05-09 03:52 48.40934 -95.56616 40737 ft 552 kts 119°
2026-05-09 03:53 48.37042 -95.46657 40736 ft 552 kts 119°
2026-05-09 03:53 48.33144 -95.36717 40732 ft 552 kts 119°
2026-05-09 03:54 48.29236 -95.26791 40741 ft 552 kts 120°
2026-05-09 03:54 48.25318 -95.16876 40738 ft 552 kts 120°
2026-05-09 03:55 48.21395 -95.06984 40731 ft 552 kts 120°
2026-05-09 03:55 48.17459 -94.97096 40728 ft 552 kts 120°
2026-05-09 03:56 48.13519 -94.87236 40722 ft 552 kts 120°
2026-05-09 03:56 48.09570 -94.77387 40720 ft 552 kts 120°
2026-05-09 03:57 48.05609 -94.67546 40742 ft 552 kts 120°
2026-05-09 03:57 48.01639 -94.57719 40716 ft 552 kts 120°
2026-05-09 03:58 47.97663 -94.47912 40716 ft 552 kts 121°
2026-05-09 03:58 47.93677 -94.38117 40713 ft 552 kts 121°
2026-05-09 03:59 47.89684 -94.28339 40714 ft 552 kts 121°
2026-05-09 03:59 47.85681 -94.18571 40717 ft 553 kts 121°
2026-05-09 04:00 47.81664 -94.08808 40713 ft 553 kts 121°
2026-05-09 04:00 47.77635 -93.99048 40716 ft 554 kts 121°
2026-05-09 04:01 47.73600 -93.89310 40702 ft 554 kts 121°
2026-05-09 04:01 47.69552 -93.79574 40711 ft 554 kts 121°
2026-05-09 04:02 47.65521 -93.69915 40713 ft 554 kts 121°
2026-05-09 04:02 47.61454 -93.60205 40708 ft 554 kts 121°
2026-05-09 04:03 47.57377 -93.50505 40708 ft 554 kts 121°
2026-05-09 04:03 47.53296 -93.40828 40699 ft 554 kts 122°
2026-05-09 04:04 47.49198 -93.31147 40710 ft 555 kts 122°
2026-05-09 04:04 47.45765 -93.23065 40688 ft 553 kts 122°
2026-05-09 04:05 47.41672 -93.13458 40676 ft 552 kts 122°
2026-05-09 04:05 47.36910 -93.02322 40668 ft 552 kts 122°
2026-05-09 04:06 47.33498 -92.94372 40657 ft 552 kts 122°
2026-05-09 04:06 47.29384 -92.84816 40667 ft 552 kts 122°
2026-05-09 04:07 47.25258 -92.75267 40686 ft 552 kts 122°
2026-05-09 04:07 47.21126 -92.65736 40686 ft 552 kts 122°
2026-05-09 04:08 47.16987 -92.56222 40683 ft 552 kts 122°
2026-05-09 04:08 47.12840 -92.46723 40697 ft 553 kts 123°
2026-05-09 04:09 47.08682 -92.37231 40674 ft 552 kts 123°
2026-05-09 04:09 47.04520 -92.27764 40669 ft 552 kts 123°
2026-05-09 04:10 47.00349 -92.18309 40668 ft 552 kts 123°
2026-05-09 04:10 46.96175 -92.08877 40666 ft 552 kts 123°
2026-05-09 04:11 46.91988 -91.99449 40668 ft 552 kts 123°
2026-05-09 04:11 46.87805 -91.90064 40660 ft 550 kts 123°
2026-05-09 04:12 46.83620 -91.80704 40658 ft 550 kts 123°
2026-05-09 04:12 46.79428 -91.71360 40660 ft 550 kts 123°
2026-05-09 04:13 46.75226 -91.62026 40689 ft 550 kts 123°
2026-05-09 04:13 46.71017 -91.52706 40672 ft 550 kts 124°
2026-05-09 04:14 46.66827 -91.43462 40668 ft 550 kts 124°
2026-05-09 04:14 46.62601 -91.34169 40667 ft 551 kts 124°
2026-05-09 04:15 46.58368 -91.24891 40663 ft 551 kts 124°
2026-05-09 04:15 46.54126 -91.15625 40663 ft 551 kts 124°
2026-05-09 04:16 46.49845 -91.06304 40658 ft 551 kts 124°
2026-05-09 04:16 46.45611 -90.97115 40659 ft 551 kts 124°
2026-05-09 04:17 46.41343 -90.87884 40631 ft 551 kts 124°
2026-05-09 04:17 46.37038 -90.78602 40660 ft 551 kts 124°
2026-05-09 04:18 46.32783 -90.69460 40652 ft 551 kts 125°
2026-05-09 04:18 46.28493 -90.60272 40653 ft 551 kts 125°
2026-05-09 04:19 46.24196 -90.51100 40656 ft 551 kts 125°
2026-05-09 04:19 46.19895 -90.41949 40653 ft 551 kts 125°
2026-05-09 04:20 46.15583 -90.32804 40649 ft 551 kts 125°
2026-05-09 04:20 46.11269 -90.23686 40655 ft 550 kts 125°
2026-05-09 04:21 46.06948 -90.14581 40656 ft 550 kts 125°
2026-05-09 04:22 46.00493 -90.00929 40654 ft 551 kts 122°
2026-05-09 04:22 45.96726 -89.91337 40623 ft 550 kts 119°
2026-05-09 04:23 45.93084 -89.81663 40636 ft 550 kts 119°
2026-05-09 04:23 45.89455 -89.71987 40636 ft 550 kts 119°
2026-05-09 04:24 45.85805 -89.62318 40637 ft 551 kts 119°
2026-05-09 04:24 45.82147 -89.52685 40645 ft 550 kts 119°
2026-05-09 04:25 45.78474 -89.43055 40640 ft 550 kts 119°
2026-05-09 04:25 45.74793 -89.33438 40645 ft 551 kts 119°
2026-05-09 04:26 45.71104 -89.23832 40646 ft 551 kts 120°
2026-05-09 04:26 45.67409 -89.14243 40664 ft 550 kts 120°
2026-05-09 04:27 45.63707 -89.04669 40668 ft 550 kts 120°
2026-05-09 04:27 45.59998 -88.95111 40675 ft 550 kts 120°
2026-05-09 04:28 45.56284 -88.85571 40667 ft 550 kts 120°
2026-05-09 04:28 45.52583 -88.76100 40665 ft 550 kts 120°
2026-05-09 04:29 45.48851 -88.66582 40665 ft 551 kts 120°
2026-05-09 04:29 45.45102 -88.57053 40661 ft 551 kts 120°
2026-05-09 04:30 45.41351 -88.47550 40659 ft 551 kts 120°
2026-05-09 04:30 45.37592 -88.38062 40679 ft 551 kts 121°
2026-05-09 04:31 45.33822 -88.28578 40664 ft 551 kts 121°
2026-05-09 04:31 45.30046 -88.19111 40661 ft 551 kts 121°
2026-05-09 04:32 45.26261 -88.09654 40667 ft 551 kts 121°
2026-05-09 04:32 45.22468 -88.00207 40670 ft 551 kts 121°
2026-05-09 04:33 45.18670 -87.90780 40679 ft 551 kts 121°
2026-05-09 04:33 45.14862 -87.81363 40672 ft 551 kts 121°
2026-05-09 04:34 45.11045 -87.71954 40675 ft 551 kts 121°
2026-05-09 04:34 45.07244 -87.62614 40672 ft 552 kts 122°
2026-05-09 04:35 45.03404 -87.53212 40670 ft 552 kts 122°
2026-05-09 04:35 44.99558 -87.43825 40700 ft 552 kts 122°
2026-05-09 04:36 44.95705 -87.34453 40684 ft 552 kts 122°
2026-05-09 04:36 44.91839 -87.25082 40698 ft 553 kts 122°
2026-05-09 04:37 44.87962 -87.15712 40694 ft 553 kts 122°
2026-05-09 04:37 44.84075 -87.06351 40696 ft 553 kts 122°
2026-05-09 04:38 44.80181 -86.97005 40697 ft 553 kts 122°
2026-05-09 04:38 44.76278 -86.87667 40704 ft 553 kts 122°
2026-05-09 04:39 44.72368 -86.78344 40714 ft 553 kts 122°
2026-05-09 04:39 44.68449 -86.69029 40711 ft 553 kts 122°
2026-05-09 04:40 44.64522 -86.59728 40721 ft 553 kts 122°
2026-05-09 04:40 44.60590 -86.50444 40724 ft 553 kts 123°
2026-05-09 04:41 44.56650 -86.41172 40726 ft 553 kts 123°
2026-05-09 04:41 44.52701 -86.31907 40725 ft 553 kts 123°
2026-05-09 04:42 44.48745 -86.22658 40726 ft 554 kts 123°
2026-05-09 04:42 44.44779 -86.13416 40729 ft 554 kts 123°
2026-05-09 04:43 44.40809 -86.04193 40733 ft 554 kts 123°
2026-05-09 04:43 44.36829 -85.94976 40745 ft 554 kts 123°
2026-05-09 04:44 44.32840 -85.85769 40752 ft 554 kts 123°
2026-05-09 04:44 44.28870 -85.76635 40760 ft 554 kts 123°
2026-05-09 04:45 44.24863 -85.67445 40760 ft 554 kts 123°
2026-05-09 04:45 44.20851 -85.58273 40759 ft 554 kts 123°
2026-05-09 04:46 44.16830 -85.49111 40760 ft 554 kts 123°
2026-05-09 04:46 44.12804 -85.39963 40744 ft 554 kts 124°
2026-05-09 04:47 44.08772 -85.30835 40782 ft 554 kts 124°
2026-05-09 04:47 44.04733 -85.21716 40785 ft 554 kts 124°
2026-05-09 04:48 44.00688 -85.12615 40788 ft 554 kts 124°
2026-05-09 04:48 43.96634 -85.03521 40789 ft 554 kts 124°
2026-05-09 04:49 43.92577 -84.94450 40793 ft 553 kts 124°
2026-05-09 04:49 43.88513 -84.85391 40786 ft 553 kts 124°
2026-05-09 04:50 43.84444 -84.76350 40789 ft 553 kts 124°
2026-05-09 04:50 43.80393 -84.67371 40783 ft 544 kts 125°
2026-05-09 04:51 43.76424 -84.58602 40783 ft 540 kts 125°
2026-05-09 04:51 43.72431 -84.49814 40788 ft 539 kts 125°
2026-05-09 04:52 43.68435 -84.41047 40778 ft 539 kts 125°
2026-05-09 04:52 43.64432 -84.32286 40777 ft 540 kts 125°
2026-05-09 04:53 43.60418 -84.23528 40777 ft 540 kts 126°
2026-05-09 04:53 43.56400 -84.14786 40805 ft 539 kts 126°
2026-05-09 04:54 43.53054 -84.07527 40804 ft 539 kts 126°
2026-05-09 04:54 43.49004 -83.98763 40803 ft 539 kts 126°
2026-05-09 04:54 43.47003 -83.94445 40133 ft 529 kts 124°
2026-05-09 04:55 43.45064 -83.90262 40367 ft 522 kts 124°
2026-05-09 04:55 43.43115 -83.86066 40622 ft 520 kts 124°
2026-05-09 04:55 43.41167 -83.81880 40851 ft 520 kts 124°
2026-05-09 04:56 43.37255 -83.73489 40909 ft 521 kts 124°
2026-05-09 04:56 43.33341 -83.65110 40831 ft 520 kts 124°
2026-05-09 04:57 43.29425 -83.56767 40795 ft 520 kts 125°
2026-05-09 04:57 43.25504 -83.48433 40803 ft 519 kts 125°
2026-05-09 04:58 43.21579 -83.40105 40814 ft 520 kts 124°
2026-05-09 04:58 43.17649 -83.31782 40814 ft 520 kts 125°
2026-05-09 04:59 43.13701 -83.23469 40822 ft 520 kts 125°
2026-05-09 04:59 43.09750 -83.15163 40823 ft 521 kts 125°
2026-05-09 05:00 43.05792 -83.06863 40823 ft 521 kts 125°
2026-05-09 05:00 43.01828 -82.98576 40823 ft 521 kts 125°
2026-05-09 05:01 42.97858 -82.90298 40818 ft 520 kts 125°
2026-05-09 05:01 42.93883 -82.82028 40827 ft 521 kts 125°
2026-05-09 05:02 42.89897 -82.73765 40824 ft 521 kts 125°
2026-05-09 05:02 42.85907 -82.65514 40823 ft 522 kts 126°
2026-05-09 05:03 42.82055 -82.57130 40823 ft 524 kts 118°
2026-05-09 05:03 42.79679 -82.47753 40831 ft 526 kts 105°
2026-05-09 05:04 42.78009 -82.38048 40832 ft 527 kts 103°
2026-05-09 05:04 42.76442 -82.28306 40832 ft 527 kts 103°
2026-05-09 05:05 42.74848 -82.18571 40832 ft 527 kts 103°
2026-05-09 05:05 42.73229 -82.08904 40832 ft 527 kts 104°
2026-05-09 05:06 42.71584 -81.99188 40840 ft 528 kts 104°
2026-05-09 05:06 42.69928 -81.89470 40841 ft 528 kts 104°
2026-05-09 05:07 42.68265 -81.79754 40846 ft 528 kts 104°
2026-05-09 05:07 42.66593 -81.70037 40851 ft 528 kts 104°
2026-05-09 05:08 42.64913 -81.60323 40850 ft 528 kts 104°
2026-05-09 05:08 42.63225 -81.50617 40850 ft 528 kts 104°
2026-05-09 05:09 42.61530 -81.40921 40857 ft 528 kts 104°
2026-05-09 05:09 42.59826 -81.31229 40860 ft 528 kts 104°
2026-05-09 05:10 42.58114 -81.21543 40860 ft 528 kts 104°
2026-05-09 05:10 42.56395 -81.11868 40858 ft 528 kts 104°
2026-05-09 05:11 42.54667 -81.02191 40860 ft 528 kts 104°
2026-05-09 05:11 42.52930 -80.92517 40860 ft 528 kts 104°
2026-05-09 05:12 42.51195 -80.82908 40860 ft 528 kts 104°
2026-05-09 05:12 42.49441 -80.73239 40865 ft 528 kts 104°
2026-05-09 05:13 42.47678 -80.63571 40875 ft 529 kts 105°
2026-05-09 05:13 42.45905 -80.53900 40882 ft 529 kts 105°
2026-05-09 05:14 42.44125 -80.44239 40882 ft 529 kts 105°
2026-05-09 05:14 42.42336 -80.34580 40883 ft 529 kts 105°
2026-05-09 05:15 42.40536 -80.24911 40874 ft 530 kts 105°
2026-05-09 05:15 42.38729 -80.15254 40889 ft 530 kts 105°
2026-05-09 05:16 42.36912 -80.05591 40888 ft 530 kts 105°
2026-05-09 05:16 42.35086 -79.95929 40891 ft 530 kts 105°
2026-05-09 05:17 42.33251 -79.86284 40894 ft 530 kts 105°
2026-05-09 05:17 42.31411 -79.76641 40900 ft 530 kts 105°
2026-05-09 05:18 42.29563 -79.66998 40899 ft 530 kts 105°
2026-05-09 05:18 42.27706 -79.57362 40904 ft 530 kts 105°
2026-05-09 05:19 42.25853 -79.47798 40905 ft 530 kts 105°
2026-05-09 05:19 42.23980 -79.38180 40908 ft 530 kts 105°
2026-05-09 05:20 42.22100 -79.28568 40913 ft 530 kts 105°
2026-05-09 05:20 42.20213 -79.18971 40917 ft 529 kts 106°
2026-05-09 05:21 42.18306 -79.09395 40915 ft 529 kts 107°
2026-05-09 05:21 42.16017 -78.99981 40915 ft 528 kts 110°
2026-05-09 05:22 42.13570 -78.90651 40916 ft 528 kts 110°
2026-05-09 05:22 42.11161 -78.81303 40922 ft 528 kts 110°
2026-05-09 05:23 42.08787 -78.71933 40925 ft 529 kts 110°
2026-05-09 05:23 42.06421 -78.62567 40924 ft 529 kts 110°
2026-05-09 05:24 42.04044 -78.53201 40927 ft 529 kts 110°
2026-05-09 05:24 42.01658 -78.43841 40935 ft 529 kts 110°
2026-05-09 05:25 41.99263 -78.34486 40934 ft 529 kts 110°
2026-05-09 05:25 41.95656 -78.20470 40934 ft 529 kts 110°
2026-05-09 05:26 41.93240 -78.11126 40935 ft 529 kts 110°
2026-05-09 05:26 41.90817 -78.01793 40934 ft 529 kts 110°
2026-05-09 05:27 41.88386 -77.92466 40934 ft 529 kts 110°
2026-05-09 05:27 41.85949 -77.83145 40934 ft 529 kts 110°
2026-05-09 05:28 41.83506 -77.73833 40934 ft 529 kts 110°
2026-05-09 05:28 41.81049 -77.64526 40941 ft 530 kts 111°
2026-05-09 05:29 41.78585 -77.55223 40943 ft 530 kts 111°
2026-05-09 05:29 41.76135 -77.45986 40944 ft 530 kts 111°
2026-05-09 05:30 41.73655 -77.36694 40943 ft 530 kts 111°
2026-05-09 05:30 41.71167 -77.27406 40943 ft 530 kts 111°
2026-05-09 05:31 41.68671 -77.18118 40943 ft 531 kts 111°
2026-05-09 05:31 41.66164 -77.08830 40943 ft 531 kts 111°
2026-05-09 05:32 41.63651 -76.99551 40952 ft 531 kts 111°
2026-05-09 05:32 41.61131 -76.90278 40953 ft 531 kts 111°
2026-05-09 05:33 41.58603 -76.81011 40952 ft 531 kts 111°
2026-05-09 05:33 41.56067 -76.71749 40962 ft 531 kts 111°
2026-05-09 05:34 41.53522 -76.62492 40961 ft 531 kts 112°
2026-05-09 05:34 41.50973 -76.53251 40952 ft 531 kts 112°
2026-05-09 05:35 41.48418 -76.44021 40961 ft 531 kts 112°
2026-05-09 05:35 41.45855 -76.34794 40970 ft 531 kts 112°
2026-05-09 05:36 41.43303 -76.25636 40970 ft 531 kts 112°
2026-05-09 05:36 41.40727 -76.16427 40982 ft 531 kts 112°
2026-05-09 05:37 41.38143 -76.07224 40963 ft 530 kts 112°
2026-05-09 05:37 41.35551 -75.98026 40967 ft 531 kts 112°
2026-05-09 05:38 41.32950 -75.88828 40968 ft 531 kts 112°
2026-05-09 05:38 41.30340 -75.79633 40960 ft 531 kts 112°
2026-05-09 05:39 41.27721 -75.70439 40964 ft 532 kts 112°
2026-05-09 05:39 41.24876 -75.61378 40961 ft 531 kts 116°
2026-05-09 05:40 41.21819 -75.52446 40964 ft 531 kts 116°
2026-05-09 05:40 41.18787 -75.43493 40962 ft 531 kts 116°
2026-05-09 05:41 41.15771 -75.34556 40710 ft 527 kts 116°
2026-05-09 05:41 41.14778 -75.31617 40206 ft 528 kts 116°
2026-05-09 05:41 41.12756 -75.25640 38962 ft 534 kts 116°
2026-05-09 05:42 41.11747 -75.22656 38364 ft 537 kts 116°
2026-05-09 05:42 41.10217 -75.18135 37483 ft 539 kts 116°
2026-05-09 05:42 41.08683 -75.13608 36639 ft 539 kts 116°
2026-05-09 05:42 41.07147 -75.09082 35820 ft 538 kts 116°
2026-05-09 05:43 41.05612 -75.04560 34975 ft 538 kts 116°
2026-05-09 05:43 41.04074 -75.00048 34058 ft 540 kts 117°
2026-05-09 05:43 41.02521 -74.95501 33092 ft 542 kts 116°
2026-05-09 05:43 41.00967 -74.90958 32108 ft 544 kts 116°
2026-05-09 05:44 40.99620 -74.86259 31066 ft 548 kts 106°
2026-05-09 05:44 40.98880 -74.81300 30040 ft 550 kts 99°
2026-05-09 05:44 40.98307 -74.76306 29076 ft 549 kts 98°
2026-05-09 05:44 40.97745 -74.71331 28259 ft 544 kts 98°
2026-05-09 05:45 40.97186 -74.66463 27118 ft 527 kts 99°
2026-05-09 05:45 40.96634 -74.61714 26000 ft 516 kts 99°
2026-05-09 05:45 40.96087 -74.57043 25318 ft 511 kts 99°
2026-05-09 05:45 40.95541 -74.52427 24625 ft 505 kts 99°
2026-05-09 05:46 40.94999 -74.47863 23950 ft 500 kts 99°
2026-05-09 05:46 40.94461 -74.43355 23252 ft 493 kts 99°
2026-05-09 05:46 40.93927 -74.38902 22585 ft 487 kts 99°
2026-05-09 05:46 40.93398 -74.34503 21917 ft 481 kts 99°
2026-05-09 05:47 40.92875 -74.30166 21248 ft 475 kts 99°
2026-05-09 05:47 40.92356 -74.25877 20590 ft 469 kts 99°
2026-05-09 05:47 40.91842 -74.21642 19905 ft 464 kts 99°
2026-05-09 05:47 40.91332 -74.17457 19226 ft 459 kts 99°
2026-05-09 05:48 40.90723 -74.13356 18550 ft 446 kts 107°
2026-05-09 05:48 40.89507 -74.09700 17942 ft 431 kts 122°
2026-05-09 05:48 40.87935 -74.06355 17288 ft 426 kts 124°
2026-05-09 05:48 40.86325 -74.03091 16648 ft 422 kts 124°
2026-05-09 05:49 40.84732 -73.99865 16009 ft 417 kts 124°
2026-05-09 05:49 40.83157 -73.96668 15373 ft 413 kts 124°
2026-05-09 05:49 40.81624 -73.93552 14752 ft 408 kts 124°
2026-05-09 05:49 40.80092 -73.90424 14116 ft 404 kts 123°
2026-05-09 05:50 40.78845 -73.87124 13468 ft 401 kts 109°
2026-05-09 05:50 40.78387 -73.83602 12839 ft 396 kts 91°
2026-05-09 05:50 40.78400 -73.79865 12179 ft 392 kts 88°
2026-05-09 05:50 40.78478 -73.76346 11545 ft 388 kts 87°
2026-05-09 05:51 40.78553 -73.72812 10989 ft 381 kts 88°
2026-05-09 05:51 40.78616 -73.69398 10847 ft 363 kts 88°
2026-05-09 05:51 40.78671 -73.66152 10716 ft 346 kts 88°
2026-05-09 05:51 40.78722 -73.63096 10565 ft 318 kts 88°
2026-05-09 05:52 40.78766 -73.60290 10445 ft 297 kts 88°
2026-05-09 05:52 40.78807 -73.57613 10308 ft 288 kts 88°
2026-05-09 05:52 40.78846 -73.54981 10182 ft 287 kts 88°
2026-05-09 05:52 40.78885 -73.52354 10044 ft 286 kts 88°
2026-05-09 05:53 40.78927 -73.49714 9827 ft 294 kts 88°
2026-05-09 05:53 40.78967 -73.46973 9760 ft 302 kts 89°
2026-05-09 05:53 40.79004 -73.44220 9336 ft 300 kts 89°
2026-05-09 05:53 40.79041 -73.41463 8871 ft 300 kts 89°
2026-05-09 05:54 40.79073 -73.38727 8526 ft 297 kts 89°
2026-05-09 05:54 40.79093 -73.36014 8207 ft 294 kts 91°
2026-05-09 05:54 40.78690 -73.33389 7924 ft 293 kts 115°
2026-05-09 05:54 40.77486 -73.31309 7651 ft 286 kts 144°
2026-05-09 05:55 40.75724 -73.30183 7355 ft 280 kts 170°
2026-05-09 05:55 40.73821 -73.30216 7046 ft 272 kts 196°
2026-05-09 05:55 40.72148 -73.31297 6757 ft 267 kts 220°
2026-05-09 05:55 40.70985 -73.33160 6467 ft 264 kts 242°
2026-05-09 05:56 40.70200 -73.35334 6201 ft 263 kts 247°
2026-05-09 05:56 40.69476 -73.37547 5923 ft 262 kts 247°
2026-05-09 05:56 40.68693 -73.39706 5640 ft 261 kts 239°
2026-05-09 05:56 40.67496 -73.41499 5364 ft 262 kts 221°
2026-05-09 05:57 40.66045 -73.42950 5076 ft 262 kts 217°
2026-05-09 05:57 40.64561 -73.44341 4790 ft 261 kts 217°
2026-05-09 05:57 40.63084 -73.45728 4508 ft 261 kts 217°
2026-05-09 05:57 40.61613 -73.47112 4224 ft 260 kts 217°
2026-05-09 05:58 40.60153 -73.48491 4034 ft 254 kts 217°
2026-05-09 05:58 40.58730 -73.49838 3931 ft 248 kts 217°
2026-05-09 05:58 40.57363 -73.51132 3800 ft 236 kts 217°
2026-05-09 05:58 40.56055 -73.52370 3670 ft 230 kts 217°
2026-05-09 05:59 40.54758 -73.53601 3544 ft 230 kts 217°
2026-05-09 05:59 40.53460 -73.54832 3428 ft 230 kts 217°
2026-05-09 05:59 40.52063 -73.55857 3363 ft 232 kts 200°
2026-05-09 05:59 40.50462 -73.55996 3291 ft 235 kts 169°
2026-05-09 06:00 40.49030 -73.54988 3235 ft 238 kts 136°
2026-05-09 06:00 40.48221 -73.53104 3172 ft 241 kts 103°
2026-05-09 06:00 40.48296 -73.50935 3108 ft 241 kts 70°
2026-05-09 06:00 40.49221 -73.49138 3083 ft 239 kts 41°
2026-05-09 06:01 40.50494 -73.47821 3045 ft 225 kts 30°
2026-05-09 06:01 40.51895 -73.47133 3040 ft 206 kts
2026-05-09 06:01 40.53218 -73.47359 3032 ft 186 kts 329°
2026-05-09 06:01 40.53975 -73.48646 3027 ft 181 kts 283°
2026-05-09 06:02 40.53915 -73.50265 2936 ft 178 kts 257°
2026-05-09 06:02 40.53603 -73.51852 2822 ft 180 kts 255°
2026-05-09 06:02 40.53331 -73.53464 2691 ft 182 kts 261°
2026-05-09 06:02 40.53308 -73.55123 2563 ft 183 kts 275°
2026-05-09 06:03 40.53620 -73.56741 2448 ft 184 kts 292°
2026-05-09 06:03 40.54206 -73.58178 2336 ft 173 kts 300°
2026-05-09 06:03 40.54805 -73.59509 2205 ft 165 kts 299°
2026-05-09 06:03 40.55392 -73.60800 2077 ft 165 kts 299°
2026-05-09 06:04 40.55980 -73.62104 1952 ft 166 kts 299°
2026-05-09 06:04 40.56565 -73.63408 1835 ft 165 kts 299°
2026-05-09 06:04 40.57149 -73.64708 1803 ft 165 kts 300°
2026-05-09 06:04 40.57735 -73.66007 1801 ft 165 kts 300°
2026-05-09 06:05 40.58312 -73.67282 1804 ft 164 kts 300°
2026-05-09 06:05 40.58881 -73.68533 1710 ft 154 kts 300°
2026-05-09 06:05 40.59410 -73.69699 1509 ft 144 kts 300°
2026-05-09 06:05 40.59919 -73.70823 1322 ft 142 kts 300°
2026-05-09 06:06 40.60425 -73.71941 1136 ft 142 kts 300°
2026-05-09 06:06 40.60929 -73.73054 941 ft 141 kts 301°
2026-05-09 06:06 40.61432 -73.74165 747 ft 141 kts 301°
2026-05-09 06:06 40.61934 -73.75272 573 ft 141 kts 301°
2026-05-09 06:07 40.62433 -73.76374 379 ft 140 kts 301°
2026-05-09 06:07 40.62934 -73.77472 209 ft 140 kts 301°
2026-05-09 06:07 40.63432 -73.78555 54 ft 139 kts 301°
2026-05-09 06:07 40.63921 -73.79609 27 ft 122 kts 301°
2026-05-09 06:08 40.64212 -73.80254 30 ft 42 kts 300°
2026-05-09 06:08 40.64359 -73.80445 28 ft 27 kts
2026-05-09 06:08 40.64458 -73.80395 28 ft 2 kts 27°
2026-05-09 06:08 40.64490 -73.80341 32 ft 7 kts 90°
2026-05-09 06:09 40.64472 -73.80275 26 ft 8 kts 117°
2026-05-09 06:09 40.64439 -73.80194 27 ft 12 kts 118°
2026-05-09 06:09 40.64395 -73.80089 28 ft 14 kts 120°
2026-05-09 06:09 40.64344 -73.79978 30 ft 14 kts 121°
2026-05-09 06:10 40.64279 -73.79875 31 ft 15 kts 135°
2026-05-09 06:10 40.64201 -73.79766 32 ft 16 kts 126°
2026-05-09 06:10 40.64132 -73.79635 32 ft 19 kts 124°
2026-05-09 06:10 40.64065 -73.79498 29 ft 14 kts 120°
2026-05-09 06:11 40.64013 -73.79378 29 ft 17 kts 120°
2026-05-09 06:11 40.63948 -73.79231 26 ft 20 kts 120°
2026-05-09 06:11 40.63876 -73.79069 29 ft 21 kts 120°
2026-05-09 06:11 40.63803 -73.78904 31 ft 21 kts 120°
2026-05-09 06:12 40.63729 -73.78741 35 ft 21 kts 121°
2026-05-09 06:12 40.63652 -73.78572 33 ft 22 kts 121°
2026-05-09 06:12 40.63575 -73.78406 34 ft 13 kts 121°
2026-05-09 06:12 40.63548 -73.78306 31 ft 11 kts 75°
2026-05-09 06:13 40.63624 -73.78260 29 ft 14 kts
2026-05-09 06:13 40.63733 -73.78273 29 ft 17 kts 354°
2026-05-09 06:13 40.63858 -73.78294 30 ft 19 kts 349°
2026-05-09 06:13 40.63977 -73.78348 29 ft 9 kts
2026-05-09 06:14 40.64001 -73.78339 29 ft 4 kts 24°
2026-05-09 06:14 40.64025 -73.78312 29 ft 5 kts 57°
2026-05-09 06:14 40.64030 -73.78302 29 ft 4 kts 57°
2026-05-09 06:14 40.64043 -73.78274 29 ft 0 kts 57°
2026-05-09 06:18 40.64047 -73.78266 29 ft 0 kts 62°